Simultaneous Nadir Overpasses (SNOs) Predictions

Prediction of SNOs between LANDSAT-8 and METOP-A Satellite Orbit:

Table of predicted SNOs for the next 14.0 days since TLE Epoch: 3/6/2021
Index Date (LANDSAT-8) Time (LANDSAT-8) Lat,Lon (LANDSAT-8) SZA (LANDSAT-8 ) Date (METOP-A) Time (METOP-A) Lat,Lon (METOP-A) SZA (METOP-A ) Distance(km) Time Diff (sec)
1 03/07/2021 17:30:36 -81.43, 142.32 91.41 03/07/2021 17:30:13 -81.42, 142.26 91.44 1.85 23
2 03/07/2021 18:20:03 81.42, -50.29 88.55 03/07/2021 18:20:54 81.42, -50.39 88.56 1.65 51
3 03/10/2021 13:04:50 -81.42,-151.38 92.51 03/10/2021 13:04:35 -81.42,-151.44 92.52 1.28 15
4 03/10/2021 13:54:17 81.41, 15.99 87.45 03/10/2021 13:55:16 81.42, 15.90 87.47 1.59 59
5 03/13/2021 08:39:03 -81.42, -85.10 93.61 03/13/2021 08:38:56 -81.42, -85.15 93.62 0.80 7
6 03/13/2021 09:28:29 81.42, 82.62 86.39 03/13/2021 09:29:36 81.41, 82.56 86.40 1.56 67
7 03/16/2021 03:23:49 81.43, 173.92 85.35 03/16/2021 03:22:37 81.42, 173.94 85.31 1.15 72
8 03/16/2021 04:13:17 -81.41, -18.86 94.73 03/16/2021 04:13:18 -81.42, -18.87 94.72 1.60 1
9 03/16/2021 05:02:40 81.46, 150.00 85.43 03/16/2021 05:03:47 81.27, 153.07 85.65 55.73 67
10 03/18/2021 22:58:03 81.41,-119.91 84.22 03/18/2021 22:56:59 81.42,-119.82 84.21 1.52 64



Historial Predications of SNOs between LANDSAT-8 and METOP-A
